Change the Weather History Date:

Wednesday, September 18, 2013

  Actual Average Record
Temperature  
Mean Temperature 70 °F -  
Max Temperature 75 °F 88 °F 98 °F (1996)
Min Temperature 66 °F 76 °F 66 °F (2013)
Cooling Degree Days 6    
Growing Degree Days 20 (Base 50)    
Moisture  
Dew Point 72 °F    
Average Humidity 97    
Maximum Humidity 100    
Minimum Humidity 89    
Precipitation  
Precipitation 0.25 in - - ()
Sea Level Pressure  
Sea Level Pressure 29.85 in    
Wind  
Wind Speed 11 mph ()    
Max Wind Speed 17 mph    
Max Gust Speed -    
Visibility 6.5 miles    
Events Rain    
Averages and records for this station are not official NWS values.
T = Trace of Precipitation, MM = Missing Value Source: Averaged Metar Reports

Daily Weather History Graph

Daily Weather History Graph

Search for Another Location

Airport or City:

Trip Planner

Search our weather history database for the weather conditions in past years. The results will help you decide how hot, cold, wet, or windy it might be!

Date:

Astronomy

Sep. 18, 2013 Rise Set
Actual Time 6:35 AM CDT 6:47 PM CDT
Civil Twilight 6:13 AM CDT 7:09 PM CDT
Nautical Twilight 5:47 AM CDT 7:35 PM CDT
Astronomical Twilight 5:21 AM CDT 8:01 PM CDT
Moon 6:12 PM CDT (9/18) 5:39 AM CDT (9/18)
Length of Visible Light 12h 55m
Length of Day
12h 11m
Waxing Gibbous, 99% of the Moon is Illuminated
Sep 18
Waxing Gibbous
Sep 19
Full
Sep 26
Last Quarter
Oct 4
New
Oct 11
First Quarter

Hourly Weather History & Observations

Time (CDT) Temp. Dew Point Humidity Pressure Visibility Wind Dir Wind Speed Gust Speed Precip Events Conditions
12:44 AM 75.2 °F 73.4 °F 94% 29.81 in 7.0 mi ESE 12.7 mph - N/A   Mostly Cloudy
1:43 AM 75.2 °F 73.4 °F 94% 29.80 in 7.0 mi East 15.0 mph - N/A   Mostly Cloudy
2:42 AM 75.2 °F 73.4 °F 94% 29.79 in 7.0 mi ESE 11.5 mph - N/A   Mostly Cloudy
3:41 AM 73.4 °F 73.4 °F 100% 29.81 in 5.0 mi East 17.3 mph - N/A Rain Rain
5:10 AM 71.6 °F 71.6 °F 100% 29.79 in 7.0 mi East 10.4 mph - N/A   Overcast
5:50 AM 71.6 °F 71.6 °F 100% 29.79 in 5.0 mi ESE 12.7 mph - N/A Rain Rain
6:45 AM 71.6 °F 71.6 °F 100% 29.80 in 6.0 mi ESE 13.8 mph - N/A   Overcast
7:44 AM 73.4 °F 71.6 °F 94% 29.83 in 7.0 mi ESE 11.5 mph - N/A   Overcast
8:47 AM 75.2 °F 71.6 °F 89% 29.87 in 7.0 mi ESE 17.3 mph - N/A   Overcast
9:40 AM 73.4 °F 73.4 °F 100% 29.91 in 7.0 mi ESE 15.0 mph - N/A   Overcast
10:22 AM 73.4 °F 73.4 °F 100% 29.90 in 2.0 mi ESE 10.4 mph - N/A Rain Heavy Rain
10:44 AM 66.2 °F 66.2 °F 100% 29.93 in 7.0 mi SW 6.9 mph - N/A   Overcast
11:52 AM 69.8 °F 69.8 °F 100% 29.91 in 7.0 mi SE 9.2 mph - N/A   Overcast
12:44 PM 69.8 °F 69.8 °F 100% 29.87 in 7.0 mi SE 8.1 mph - N/A   Overcast
1:46 PM 69.8 °F 69.8 °F 100% 29.85 in 6.0 mi SE 11.5 mph - N/A Rain Light Rain
2:47 PM 71.6 °F 71.6 °F 100% 29.84 in 6.0 mi ESE 11.5 mph - N/A   Overcast
3:47 PM 73.4 °F 71.6 °F 94% 29.85 in 6.0 mi SE 12.7 mph - N/A   Overcast
4:52 PM 75.2 °F 71.6 °F 89% 29.81 in 7.0 mi SE 10.4 mph - N/A   Overcast
5:43 PM 75.2 °F 73.4 °F 94% 29.81 in 7.0 mi ESE 5.8 mph - N/A   Overcast
6:40 PM 73.4 °F 73.4 °F 100% 29.81 in 7.0 mi ESE 9.2 mph - N/A   Overcast
7:45 PM 73.4 °F 71.6 °F 94% 29.84 in 7.0 mi ESE 5.8 mph - N/A   Mostly Cloudy
8:42 PM 73.4 °F 73.4 °F 100% 29.85 in 7.0 mi ESE 5.8 mph - N/A   Scattered Clouds
9:51 PM 75.2 °F 73.4 °F 94% 29.90 in 7.0 mi ESE 15.0 mph - N/A   Mostly Cloudy
10:48 PM 75.2 °F 73.4 °F 94% 29.89 in 7.0 mi ESE 15.0 mph - N/A   Mostly Cloudy
11:48 PM 75.2 °F 73.4 °F 94% 29.89 in 7.0 mi ESE 15.0 mph - N/A   Mostly Cloudy